DW2363 Weather Reports


time (UTC)temp
F
wind
direction
speed
knots
gust
knots
rain 1hr
in
rain 24hr
in
rain mn
in
humidity
%
barometer
mb
20260508125036 61 94 0.0 0.0 0.00 0.00 0.00 76 1015.4
20260508124534 61 94 0.0 0.0 0.00 0.00 0.00 76 1015.3
20260508124033 61 94 0.0 1.7 0.00 0.00 0.00 76 1015.3
20260508123531 62 94 0.0 1.7 0.00 0.00 0.00 76 1015.3
20260508123036 62 94 0.0 1.7 0.00 0.00 0.00 76 1015.3
20260508123031 62 94 0.0 1.7 0.00 0.00 0.00 78 1015.2
20260508122028 62 94 0.0 1.7 0.00 0.00 0.00 78 1015.2
20260508121526 61 94 0.0 1.7 0.00 0.00 0.00 79 1015.2
20260508121026 61 94 0.0 1.7 0.00 0.00 0.00 79 1015.1
20260508120526 60 94 0.0 0.9 0.00 0.00 0.00 77 1015.1
20260508120026 60 94 0.0 0.9 0.00 0.00 0.00 79 1015.1
20260508115526 60 94 0.0 0.9 0.00 0.00 0.00 80 1015.1
20260508115026 60 94 0.0 1.7 0.00 0.00 0.00 79 1015.1
20260508114526 60 94 0.9 1.7 0.00 0.00 0.00 82 1015.1
20260508114026 60 94 0.9 1.7 0.00 0.00 0.00 80 1015.1
20260508113526 59 94 0.9 1.7 0.00 0.00 0.00 81 1015.1
20260508113031 59 264 0.0 2.6 0.00 0.00 0.00 82 1015.1
20260508113025 59 84 0.9 1.7 0.00 0.00 0.00 82 1015.1
20260508112024 60 249 0.9 2.6 0.00 0.00 0.00 82 1015.1
20260508111523 60 200 0.9 2.6 0.00 0.00 0.00 82 1015.1
20260508111022 60 189 0.9 2.6 0.00 0.00 0.00 81 1015.1
20260508110522 59 202 0.9 1.7 0.00 0.00 0.00 80 1015.1
20260508110022 59 191 0.9 2.6 0.00 0.00 0.00 81 1015.1
20260508105523 59 180 1.7 3.5 0.00 0.00 0.00 82 1015.0
20260508105022 60 130 0.9 3.5 0.00 0.00 0.00 81 1015.0
20260508104521 59 19 1.7 3.5 0.00 0.00 0.00 80 1015.0
20260508104022 60 35 1.7 3.5 0.00 0.00 0.00 82 1015.1
20260508103520 60 67 0.9 2.6 0.00 0.00 0.00 80 1015.2
20260508103020 60 67 1.7 3.5 0.00 0.00 0.00 80 1015.1
20260508102520 59 45 2.6 4.3 0.00 0.00 0.00 80 1015.0
20260508102020 59 55 2.6 4.3 0.00 0.00 0.00 80 1015.0
20260508101520 59 33 3.5 5.2 0.00 0.00 0.00 80 1015.0
20260508101020 59 38 3.5 5.2 0.00 0.00 0.00 81 1015.2
20260508100520 58 43 2.6 4.3 0.00 0.00 0.00 81 1015.1
20260508100024 58 55 0.9 4.3 0.00 0.00 0.00 83 1015.1
20260508100020 58 74 1.7 4.3 0.00 0.00 0.00 83 1015.1
20260508095628 58 25 1.7 4.3 0.00 0.00 0.00 84 1015.2
20260508094522 58 355 4.3 7.0 0.00 0.00 0.00 84 1015.1
20260508094518 58 310 3.5 5.2 0.00 0.00 0.00 84 1015.1
20260508094125 58 315 5.2 7.8 0.00 0.00 0.00 84 1015.2
20260508093020 58 355 5.2 7.8 0.00 0.00 0.00 84 1015.1
20260508093016 58 29 5.2 7.0 0.00 0.00 0.00 84 1015.1
20260508092016 58 42 5.2 7.0 0.00 0.00 0.00 84 1015.2
20260508091516 58 24 4.3 7.0 0.00 0.00 0.00 82 1015.1
20260508091016 60 29 3.5 5.2 0.00 0.00 0.00 78 1015.2
20260508090513 61 20 3.5 6.1 0.00 0.00 0.00 76 1015.1
20260508090013 62 20 3.5 6.1 0.00 0.00 0.00 76 1015.2
20260508085517 62 11 2.6 4.3 0.00 0.00 0.00 76 1015.3
20260508085513 62 20 3.5 4.3 0.00 0.00 0.00 77 1015.3
20260508084515 62 253 0.9 2.6 0.00 0.00 0.00 76 1015.3
20260508084511 62 18 1.7 3.5 0.00 0.00 0.00 76 1015.3
20260508083511 62 263 0.9 1.7 0.00 0.00 0.00 76 1015.4
20260508083015 62 36 0.9 1.7 0.00 0.00 0.00 75 1015.4
20260508083011 62 270 0.9 1.7 0.00 0.00 0.00 75 1015.4
20260508082011 63 202 0.0 0.9 0.00 0.00 0.00 75 1015.5
20260508081511 62 163 0.0 0.9 0.00 0.00 0.00 76 1015.5
20260508081011 62 169 0.0 0.0 0.00 0.00 0.00 77 1015.6
20260508080508 62 152 0.0 0.0 0.00 0.00 0.00 76 1015.7
20260508080008 62 127 0.0 0.0 0.00 0.00 0.00 77 1015.7
20260508075507 61 130 0.0 0.0 0.00 0.00 0.00 77 1015.8
20260508075005 61 127 0.0 0.9 0.00 0.00 0.00 78 1015.8
20260508074505 60 112 0.0 2.6 0.00 0.00 0.00 78 1015.8
20260508074003 61 61 0.0 2.6 0.00 0.00 0.00 78 1015.7
20260508073503 61 355 0.0 2.6 0.00 0.00 0.00 78 1015.9
20260508073007 62 355 0.0 2.6 0.00 0.00 0.00 75 1015.9
20260508073003 61 5 0.0 2.6 0.00 0.00 0.00 77 1015.8
20260508072004 63 355 0.0 1.7 0.00 0.00 0.00 73 1015.8
20260508071503 64 349 0.0 1.7 0.00 0.00 0.00 72 1015.7
20260508071009 65 31 0.9 4.3 0.00 0.00 0.00 72 1015.6
20260508071003 64 31 0.0 1.7 0.00 0.00 0.00 72 1015.7
20260508070004 65 88 1.7 4.3 0.00 0.00 0.00 72 1015.7
20260508065505 65 21 3.5 4.3 0.00 0.00 0.00 73 1015.7
20260508065501 65 71 2.6 4.3 0.00 0.00 0.00 72 1015.7
20260508064501 65 46 3.5 4.3 0.00 0.00 0.00 72 1015.7
20260508064005 66 61 1.7 3.5 0.00 0.00 0.00 71 1015.7
20260508064001 66 40 2.6 4.3 0.00 0.00 0.00 71 1015.7
20260508063001 66 331 2.6 3.5 0.00 0.00 0.00 72 1015.7
20260508062501 65 321 2.6 3.5 0.00 0.00 0.00 70 1015.6
20260508062001 66 30 2.6 4.3 0.00 0.00 0.00 70 1015.6
20260508061501 65 30 2.6 4.3 0.00 0.00 0.00 70 1015.7
20260508061000 65 340 2.6 4.3 0.00 0.00 0.00 68 1015.6
20260508060459 66 332 3.5 4.3 0.00 0.00 0.00 66 1015.6
20260508055959 66 9 3.5 6.1 0.00 0.00 0.00 66 1015.7
20260508055459 66 22 4.3 6.1 0.00 0.00 0.00 65 1015.7
20260508054959 67 22 4.3 7.0 0.00 0.00 0.00 65 1015.7
20260508054503 67 56 4.3 7.0 0.00 0.00 0.00 66 1015.7
20260508054459 67 36 4.3 7.0 0.00 0.00 0.00 65 1015.7
20260508053459 67 58 4.3 7.0 0.00 0.00 0.00 67 1015.7
20260508052959 67 53 3.5 5.2 0.00 0.00 0.00 67 1015.7
20260508052458 67 60 3.5 5.2 0.00 0.00 0.00 67 1015.7
20260508051958 67 59 1.7 5.2 0.00 0.00 0.00 67 1015.7
20260508051457 66 55 1.7 3.5 0.00 0.00 0.00 67 1015.7
20260508051002 66 0 1.7 3.5 0.00 0.00 0.00 65 1015.7
20260508050957 66 0 1.7 2.6 0.00 0.00 0.00 65 1015.7
20260508050000 66 0 0.9 3.5 0.00 0.00 0.00 67 1015.7
20260508045956 66 0 0.9 3.5 0.00 0.00 0.00 65 1015.7
20260508044957 67 0 0.9 3.5 0.00 0.00 0.00 66 1015.6
20260508044456 67 0 0.9 3.5 0.00 0.00 0.00 67 1015.6
20260508043957 67 22 0.0 2.6 0.00 0.00 0.00 66 1015.7
20260508043456 67 22 0.9 2.6 0.00 0.00 0.00 67 1015.6
20260508042957 68 26 0.9 1.7 0.00 0.00 0.00 66 1015.5
20260508042457 68 40 0.0 1.7 0.00 0.00 0.00 65 1015.4
20260508041957 68 40 0.0 0.9 0.00 0.00 0.00 64 1015.4
20260508041456 68 40 0.0 0.9 0.00 0.00 0.00 64 1015.3
20260508040955 68 40 0.0 0.9 0.00 0.00 0.00 64 1015.3
20260508040455 68 40 0.0 1.7 0.00 0.00 0.00 64 1015.2
20260508035955 68 40 0.9 1.7 0.00 0.00 0.00 64 1015.3
20260508035455 68 32 0.0 1.7 0.00 0.00 0.00 64 1015.1
20260508034955 69 221 0.0 0.0 0.00 0.00 0.00 64 1015.1
20260508034454 69 221 0.0 0.0 0.00 0.00 0.00 64 1015.1
20260508033955 69 221 0.0 0.9 0.00 0.00 0.00 65 1015.1
20260508033455 69 221 0.0 0.9 0.00 0.00 0.00 65 1015.1
20260508032959 69 221 0.0 0.9 0.00 0.00 0.00 64 1014.9
20260508032955 69 221 0.0 0.9 0.00 0.00 0.00 64 1014.9
20260508031956 69 221 0.0 3.5 0.00 0.00 0.00 65 1014.9
20260508031454 69 221 0.9 3.5 0.00 0.00 0.00 64 1014.8
20260508030954 69 221 1.7 3.5 0.00 0.00 0.00 64 1014.8
20260508030453 69 221 2.6 6.1 0.00 0.00 0.00 63 1014.6
20260508025953 69 230 3.5 6.1 0.00 0.00 0.00 63 1014.5
20260508025450 70 225 3.5 7.0 0.00 0.00 0.00 62 1014.5
20260508024950 70 221 3.5 7.0 0.00 0.00 0.00 61 1014.5
20260508024451 70 233 2.6 5.2 0.00 0.00 0.00 60 1014.5
20260508023951 70 253 1.7 5.2 0.00 0.00 0.00 60 1014.5
20260508023451 71 223 0.9 2.6 0.00 0.00 0.00 59 1014.4
20260508022951 71 273 0.0 1.7 0.00 0.00 0.00 59 1014.4
20260508022451 71 273 0.0 1.7 0.00 0.00 0.00 59 1014.3
20260508021951 71 273 0.9 1.7 0.00 0.00 0.00 60 1014.3
20260508021451 71 273 0.0 1.7 0.00 0.00 0.00 60 1014.3
20260508020951 71 273 0.0 3.5 0.00 0.00 0.00 59 1014.3
20260508020455 71 273 1.7 5.2 0.00 0.00 0.00 62 1014.2
20260508020451 71 273 0.0 3.5 0.00 0.00 0.00 60 1014.2
20260508015451 71 273 2.6 5.2 0.00 0.00 0.00 62 1014.2
20260508014951 71 267 2.6 5.2 0.00 0.00 0.00 62 1014.2
20260508014451 72 267 1.7 5.2 0.00 0.00 0.00 60 1014.3
20260508013955 73 286 2.6 4.3 0.00 0.00 0.00 58 1014.2
20260508013951 73 250 1.7 4.3 0.00 0.00 0.00 59 1014.3
20260508012951 73 275 2.6 6.1 0.00 0.00 0.00 58 1014.2
20260508012455 74 311 1.7 4.3 0.00 0.00 0.00 57 1014.2
20260508012451 74 288 2.6 6.1 0.00 0.00 0.00 57 1014.1
20260508011454 75 252 0.0 2.6 0.00 0.00 0.00 57 1014.2
20260508011448 75 312 0.9 3.5 0.00 0.00 0.00 57 1014.2
20260508011056 75 308 0.9 2.6 0.00 0.00 0.00 57 1014.3
20260508005949 75 262 0.9 4.3 0.00 0.00 0.00 56 1014.3
20260508005454 75 267 0.9 4.3 0.00 0.00 0.00 57 1014.2
20260508005448 75 317 0.9 4.3 0.00 0.00 0.00 55 1014.2
20260508004448 75 277 1.7 4.3 0.00 0.00 0.00 55 1014.3
20260508003952 75 268 1.7 3.5 0.00 0.00 0.00 56 1014.3
20260508003948 76 257 0.9 4.3 0.00 0.00 0.00 55 1014.3
20260508002949 76 304 0.9 4.3 0.00 0.00 0.00 56 1014.3
20260508002448 76 300 0.9 5.2 0.00 0.00 0.00 55 1014.2
20260508001948 76 306 0.9 5.2 0.00 0.00 0.00 56 1014.2
20260508001448 76 293 0.9 5.2 0.00 0.00 0.00 56 1014.2
20260508000948 76 229 0.9 5.2 0.00 0.00 0.00 56 1014.2
20260508000445 76 18 1.7 5.2 0.00 0.00 0.00 55 1014.3
20260507235946 76 47 0.9 7.8 0.00 0.00 0.00 55 1014.3
20260507235454 76 258 0.9 7.8 0.00 0.00 0.00 56 1014.3
20260507235447 76 315 0.9 7.8 0.00 0.00 0.00 55 1014.3
20260507234446 76 309 1.7 7.8 0.00 0.00 0.00 57 1014.3
20260507234054 75 244 3.5 10.4 0.00 0.00 0.00 59 1014.4
20260507233952 76 284 1.7 10.4 0.00 0.00 0.00 59 1014.4
20260507233946 76 252 0.9 4.3 0.00 0.00 0.00 57 1014.3
20260507233702 75 292 1.7 7.8 0.00 0.00 0.00 58 1014.4
20260507232446 75 248 2.6 8.7 0.00 0.00 0.00 57 1014.3
20260507231445 75 263 1.7 7.8 0.00 0.00 0.00 58 1014.4
20260507230944 76 252 2.6 7.8 0.00 0.00 0.00 56 1014.4
20260507230449 75 305 4.3 7.8 0.00 0.00 0.00 59 1014.4
20260507230445 75 255 3.5 7.8 0.00 0.00 0.00 57 1014.4
20260507225444 75 279 4.3 11.3 0.00 0.00 0.00 60 1014.4
20260507224944 74 305 4.3 11.3 0.00 0.00 0.00 61 1014.4
20260507224444 74 329 5.2 11.3 0.00 0.00 0.00 61 1014.4
20260507223948 74 309 6.1 10.4 0.00 0.00 0.00 64 1014.5
20260507223944 74 311 6.1 11.3 0.00 0.00 0.00 63 1014.6
20260507222944 73 270 5.2 10.4 0.00 0.00 0.00 63 1014.5
20260507222444 73 284 5.2 9.6 0.00 0.00 0.00 65 1014.6
20260507221942 73 284 4.3 9.6 0.00 0.00 0.00 65 1014.6
20260507221442 73 266 3.5 8.7 0.00 0.00 0.00 64 1014.6
20260507220942 74 259 3.5 10.4 0.00 0.00 0.00 63 1014.8
20260507220442 74 287 4.3 10.4 0.00 0.00 0.00 65 1014.8
20260507215946 73 306 3.5 8.7 0.00 0.00 0.00 66 1014.9
20260507215942 73 267 3.5 8.7 0.00 0.00 0.00 66 1014.9
20260507214942 73 307 3.5 8.7 0.00 0.00 0.00 64 1015.0
20260507214443 72 310 4.3 8.7 0.00 0.00 0.00 67 1015.0
20260507213942 72 291 3.5 8.7 0.00 0.00 0.00 67 1015.1
20260507213442 72 267 1.7 7.0 0.00 0.00 0.00 66 1015.2
20260507212946 73 267 5.2 10.4 0.00 0.00 0.00 66 1015.2
20260507212942 73 304 3.5 8.7 0.00 0.00 0.00 66 1015.2
20260507211942 73 322 5.2 10.4 0.00 0.00 0.00 66 1015.3
20260507211443 73 267 3.5 9.6 0.00 0.00 0.00 66 1015.3
20260507210943 73 296 4.3 7.8 0.00 0.00 0.00 66 1015.3
20260507210443 72 280 4.3 7.8 0.00 0.00 0.00 65 1015.3
20260507205941 71 285 4.3 7.8 0.00 0.00 0.00 68 1015.4
20260507205441 71 254 4.3 7.8 0.00 0.00 0.00 67 1015.4
20260507204942 72 275 2.6 7.8 0.00 0.00 0.00 64 1015.4
20260507204938 73 292 0.9 7.0 0.00 0.00 0.00 64 1015.5
20260507203938 73 238 2.6 8.7 0.00 0.00 0.00 66 1015.6
20260507203435 72 72 3.5 8.7 0.00 0.00 0.00 69 1015.5
20260507202939 72 264 1.7 6.1 0.00 0.00 0.00 64 1015.7
20260507202935 71 289 2.6 8.7 0.00 0.00 0.00 66 1015.6
20260507201933 72 254 1.7 7.0 0.00 0.00 0.00 65 1015.7
20260507201433 72 266 1.7 7.0 0.00 0.00 0.00 65 1015.8
20260507200934 71 246 0.9 5.2 0.00 0.00 0.00 67 1015.7
20260507200433 72 292 0.9 2.6 0.00 0.00 0.00 67 1015.9
20260507195933 72 257 0.0 2.6 0.00 0.00 0.00 66 1015.9
20260507195434 73 263 0.9 3.5 0.00 0.00 0.00 65 1015.9
20260507194934 72 250 0.9 3.5 0.00 0.00 0.00 68 1015.9
20260507194433 73 226 0.9 3.5 0.00 0.00 0.00 66 1015.9
20260507193933 73 161 0.9 5.2 0.00 0.00 0.00 66 1015.9
20260507193433 72 211 1.7 9.6 0.00 0.00 0.00 66 1016.0
20260507192933 73 190 2.6 9.6 0.00 0.00 0.00 63 1016.0
20260507192434 74 26 3.5 9.6 0.00 0.00 0.00 63 1016.2
20260507191937 74 88 4.3 9.6 0.00 0.00 0.00 61 1016.0
20260507191933 74 92 3.5 9.6 0.00 0.00 0.00 61 1016.2
20260507190933 73 98 5.2 9.6 0.00 0.00 0.00 64 1016.2
20260507190438 74 30 5.2 8.7 0.00 0.00 0.00 60 1016.3
20260507190434 74 90 5.2 9.6 0.00 0.00 0.00 60 1016.2
20260507185434 74 24 5.2 10.4 0.00 0.00 0.00 61 1016.3
20260507184933 73 13 5.2 10.4 0.00 0.00 0.00 63 1016.4
20260507184433 72 46 6.1 10.4 0.00 0.00 0.00 63 1016.4
20260507183933 71 45 6.1 10.4 0.00 0.00 0.00 64 1016.4
20260507183434 72 13 5.2 9.6 0.00 0.00 0.00 63 1016.4
20260507182932 72 38 5.2 8.7 0.00 0.00 0.00 64 1016.4
20260507182435 72 55 5.2 8.7 0.00 0.00 0.00 64 1016.5
20260507182431 72 42 5.2 8.7 0.00 0.00 0.00 63 1016.4
20260507181430 71 0 4.3 8.7 0.00 0.00 0.00 64 1016.5
20260507180928 71 0 3.5 8.7 0.00 0.00 0.00 65 1016.4
20260507180427 71 346 4.3 8.7 0.00 0.00 0.00 66 1016.4
20260507175927 70 38 4.3 7.8 0.00 0.00 0.00 65 1016.4
20260507175425 70 36 3.5 7.8 0.00 0.00 0.00 66 1016.4
20260507174926 70 355 2.6 7.0 0.00 0.00 0.00 66 1016.4
20260507174425 70 45 1.7 7.0 0.00 0.00 0.00 66 1016.4
20260507173930 70 16 1.7 7.8 0.00 0.00 0.00 66 1016.4
20260507173925 70 43 1.7 7.8 0.00 0.00 0.00 68 1016.4
20260507172926 70 57 0.9 7.0 0.00 0.00 0.00 68 1016.4
20260507172425 70 70 0.9 4.3 0.00 0.00 0.00 71 1016.5
20260507171925 69 132 0.9 3.5 0.00 0.00 0.00 71 1016.4
20260507171426 69 109 1.7 5.2 0.00 0.00 0.00 71 1016.5
20260507170925 69 52 1.7 5.2 0.00 0.00 0.00 68 1016.4
20260507170430 68 38 1.7 7.0 0.00 0.00 0.00 70 1016.4
20260507170425 68 14 1.7 6.1 0.00 0.00 0.00 69 1016.4
20260507165432 67 17 2.6 5.2 0.00 0.00 0.00 72 1016.5
20260507165425 68 21 2.6 7.0 0.00 0.00 0.00 70 1016.5
20260507164425 67 40 2.6 4.3 0.00 0.00 0.00 71 1016.5
20260507163926 68 37 2.6 5.2 0.00 0.00 0.00 70 1016.5
20260507163425 68 29 1.7 5.2 0.00 0.00 0.00 70 1016.5
20260507162929 68 355 1.7 4.3 0.00 0.00 0.00 69 1016.4
20260507162924 68 20 1.7 4.3 0.00 0.00 0.00 70 1016.4
20260507161923 68 11 0.9 3.5 0.00 0.00 0.00 69 1016.3
20260507161423 69 49 0.9 2.6 0.00 0.00 0.00 68 1016.4
20260507160928 68 326 0.9 4.3 0.00 0.00 0.00 67 1016.5
20260507160924 68 24 0.9 4.3 0.00 0.00 0.00 67 1016.4
20260507155923 68 338 1.7 4.3 0.00 0.00 0.00 67 1016.5
20260507155423 68 29 0.9 4.3 0.00 0.00 0.00 67 1016.4
20260507154923 68 73 0.9 3.5 0.00 0.00 0.00 65 1016.4
20260507154423 68 37 0.9 3.5 0.00 0.00 0.00 67 1016.5
20260507153923 68 54 0.9 3.5 0.00 0.00 0.00 67 1016.4
20260507153421 68 39 0.9 2.6 0.00 0.00 0.00 66 1016.4
20260507152920 67 41 0.0 2.6 0.00 0.00 0.00 66 1016.4
20260507152421 67 97 0.0 1.7 0.00 0.00 0.00 66 1016.4
20260507152029 67 61 0.0 2.6 0.00 0.00 0.00 67 1016.4
20260507151925 67 36 0.0 2.6 0.00 0.00 0.00 67 1016.4
20260507151921 67 97 0.9 2.6 0.00 0.00 0.00 66 1016.4
20260507150421 67 111 0.0 2.6 0.00 0.00 0.00 67 1016.4
20260507145920 67 36 0.0 0.9 0.00 0.00 0.00 67 1016.4
20260507145421 66 36 0.0 0.9 0.00 0.00 0.00 65 1016.5
20260507144919 66 36 0.0 1.7 0.00 0.00 0.00 68 1016.5
20260507144417 66 38 0.9 1.7 0.00 0.00 0.00 69 1016.5
20260507143922 66 26 0.0 1.7 0.00 0.00 0.00 66 1016.4
20260507143916 66 20 0.0 1.7 0.00 0.00 0.00 67 1016.4
20260507143531 66 27 0.9 2.6 0.00 0.00 0.00 68 1016.3
20260507143525 66 26 0.0 1.7 0.00 0.00 0.00 68 1016.3
20260507141917 66 5 0.9 2.6 0.00 0.00 0.00 65 1016.3
20260507141417 65 5 0.0 2.6 0.00 0.00 0.00 63 1016.2
20260507140915 65 355 0.9 4.3 0.00 0.00 0.00 65 1016.3
20260507140415 65 355 2.6 5.2 0.00 0.00 0.00 64 1016.2
20260507135915 65 0 3.5 5.2 0.00 0.00 0.00 63 1016.0
20260507135414 65 349 3.5 5.2 0.00 0.00 0.00 63 1016.2
20260507134915 65 349 3.5 5.2 0.00 0.00 0.00 64 1016.0
20260507134415 65 351 3.5 5.2 0.00 0.00 0.00 64 1016.0
20260507133915 65 0 3.5 5.2 0.00 0.00 0.00 64 1015.8
20260507133417 65 5 1.7 4.3 0.00 0.00 0.00 64 1015.9
20260507133413 65 0 3.5 4.3 0.00 0.00 0.00 64 1015.8
20260507132411 65 5 0.9 2.6 0.00 0.00 0.00 64 1015.8
20260507131913 64 35 0.0 1.7 0.00 0.00 0.00 65 1015.9
20260507131412 64 35 0.9 2.6 0.00 0.00 0.00 65 1015.8
20260507130911 64 24 2.6 3.5 0.00 0.00 0.00 65 1015.8
20260507130411 64 22 2.6 4.3 0.00 0.00 0.00 65 1015.8
20260507125910 64 26 2.6 4.3 0.00 0.00 0.00 65 1015.8
20260507125411 64 76 1.7 3.5 0.00 0.00 0.00 67 1015.8